Погода в Авсюнино

Россия / Московская область     55°33′51″N   39°07′18″E
темп.,
°C
ветер,
м/с
пор.,
м/с
влажн.,
%
обл.,
%
осадки,
мм/ч
давл.,
гПа
погр.,
м
2 декабря, чт
чт200:00−6з498356 0.0 995598
03:00−7з498791 0.0 997544
06:00−8з4988100 0.0 1000503
09:00−8зюз498862 0.0 1002466
12:00−5зюз4778100 0.0 1003505
15:00−4ю3881100 0.0 1002502
18:00−4ю51294100 0.4 1001632
21:00−3ю51295100 1.4 999601
3 декабря, пт
пт300:00−1ююз41294100 0.4 999561
03:00+1юз51297100 0.5 999566
06:00+2юз51296100 0.1 1000732
09:00+2юз5128760 0.1 1001751
12:00+2юз41187100 0.0 1003715
15:00+1ююз41088100 0.0 1003426
18:00+1ю3999100 0.7 1002566
21:00+2ююз51398100 5.7 9991000
4 декабря, сб
сб400:00+1зюз4998100 3.4 999590
03:000з41095100 4.9 1001773
06:00−2зюз5128827 0.1 1002739
09:00−3юз5138611 0.1 1005715
12:00−3зюз61185100 0.1 1006986
15:00−2зюз51083100 0.2 10071210
18:00−3з5108599 0.1 1010971
21:00−4з4981100 0.1 1012942
5 декабря, вс
вс500:00−3з498299 0.1 10141007
03:00−5з389179 0.1 1015637
06:00−6зюз149662 0.0 1017188
09:00−5зюз1292100 0.0 1018142
12:00−3ююз1283100 0.0 1020397
15:00−3ю128698 0.0 1020333
18:00−4вюв129482 0.0 102187
21:00−3вюв2491100 0.0 1022200
6 декабря, пн
пн600:00−3в3788100 0.0 1023364
03:00−4в4887100 0.0 1024390
06:00−4в41085100 0.0 1024430
09:00−5в51284100 0.0 1025489
12:00−3вюв51277100 0.0 1024569
15:00−3вюв51280100 0.1 1024646
18:00−4вюв51394100 1.5 1024588
21:00−3вюв51394100 3.1 1023587